FW8637 Weather Reports


Display with metric or nautical units.
time (UTC)temp
F
wind
direction
speed
MPH
gust
MPH
rain 1hr
in
rain 24hr
in
rain mn
in
humidity
%
barometer
mb
20260504002514 60 292 0.0 0.0 0.00 0.00 0.00 62 1017.2
20260504002012 60 292 0.0 0.0 0.00 0.00 0.00 62 1017.2
20260504001509 61 292 0.0 0.0 0.00 0.00 0.00 63 1017.0
20260504001005 61 292 0.0 0.0 0.00 0.00 0.00 62 1016.9
20260504000503 61 292 0.0 0.0 0.00 0.00 0.00 62 1017.2
20260504000000 62 292 0.0 0.0 0.00 0.00 0.00 62 1017.2
20260503235458 62 292 0.0 0.0 0.00 0.00 0.00 61 1017.0
20260503234954 62 292 0.0 0.0 0.00 0.00 0.00 62 1017.0
20260503234452 62 292 0.0 0.0 0.00 0.00 0.00 61 1017.2
20260503233950 62 292 0.0 0.0 0.00 0.00 0.00 59 1017.2
20260503233446 63 292 0.0 0.0 0.00 0.00 0.00 58 1017.2
20260503232943 63 292 0.0 0.0 0.00 0.00 0.00 57 1017.2
20260503232439 63 292 0.0 0.0 0.00 0.00 0.00 59 1017.0
20260503231937 63 292 0.0 0.0 0.00 0.00 0.00 58 1017.3
20260503231435 63 292 0.0 0.0 0.00 0.00 0.00 56 1017.5
20260503230931 64 292 0.0 0.0 0.00 0.00 0.00 59 1017.3
20260503230428 64 292 0.0 0.0 0.00 0.00 0.00 55 1017.2
20260503225925 65 292 0.0 0.0 0.00 0.00 0.00 57 1017.5
20260503225422 65 292 0.0 0.0 0.00 0.00 0.00 55 1017.7
20260503224918 65 292 0.0 0.0 0.00 0.00 0.00 47 1017.7
20260503224415 65 292 0.0 0.0 0.00 0.00 0.00 52 1017.5
20260503223912 66 292 0.0 0.0 0.00 0.00 0.00 53 1017.5
20260503223410 66 292 0.0 0.0 0.00 0.00 0.00 48 1017.7
20260503222910 66 292 0.0 0.0 0.00 0.00 0.00 46 1017.9
20260503222409 66 292 0.0 0.0 0.00 0.00 0.00 47 1017.6
20260503221907 66 292 0.0 0.0 0.00 0.00 0.00 48 1017.7
20260503221406 66 291 0.0 0.0 0.00 0.00 0.00 47 1017.8
20260503220901 66 291 0.0 0.0 0.00 0.00 0.00 48 1017.8
20260503220358 66 291 0.0 0.0 0.00 0.00 0.00 44 1018.1
20260503215855 66 291 0.0 0.0 0.00 0.00 0.00 45 1018.0
20260503215352 66 292 0.0 0.0 0.00 0.00 0.00 50 1018.0
20260503214849 67 291 0.0 0.0 0.00 0.00 0.00 45 1018.1
20260503214347 66 291 0.0 1.0 0.00 0.00 0.00 45 1018.1
20260503213844 66 292 0.0 0.0 0.00 0.00 0.00 47 1018.0
20260503213342 66 292 0.0 0.0 0.00 0.00 0.00 43 1018.1
20260503212838 67 292 0.0 0.0 0.00 0.00 0.00 45 1018.1
20260503212336 67 292 0.0 0.0 0.00 0.00 0.00 48 1018.3
20260503211833 67 292 0.0 0.0 0.00 0.00 0.00 44 1018.4
20260503211330 67 292 0.0 0.0 0.00 0.00 0.00 42 1018.3
20260503210825 67 292 0.0 0.0 0.00 0.00 0.00 47 1018.5
20260503210323 67 292 0.0 0.0 0.00 0.00 0.00 43 1018.5
20260503205818 67 292 0.0 0.0 0.00 0.00 0.00 48 1018.4
20260503205314 67 292 0.0 0.0 0.00 0.00 0.00 45 1018.4
20260503204811 67 292 0.0 0.0 0.00 0.00 0.00 44 1018.5
20260503204309 67 292 0.0 0.0 0.00 0.00 0.00 44 1018.6
20260503203806 67 291 0.0 0.0 0.00 0.00 0.00 42 1018.6
20260503203303 67 291 0.0 0.0 0.00 0.00 0.00 40 1018.7
20260503202800 67 291 0.0 0.0 0.00 0.00 0.00 44 1018.9
20260503202258 67 291 0.0 0.0 0.00 0.00 0.00 45 1018.8
20260503201755 67 292 0.0 0.0 0.00 0.00 0.00 42 1019.1
20260503201253 67 291 0.0 0.0 0.00 0.00 0.00 40 1019.2
20260503200750 67 291 0.0 0.0 0.00 0.00 0.00 44 1019.3
20260503200246 66 292 0.0 0.0 0.00 0.00 0.00 41 1019.4
20260503195743 66 291 0.0 0.0 0.00 0.00 0.00 42 1019.7
20260503195239 66 291 0.0 0.0 0.00 0.00 0.00 46 1019.5
20260503194738 67 291 0.0 0.0 0.00 0.00 0.00 43 1019.8
20260503194233 67 291 0.0 0.0 0.00 0.00 0.00 44 1019.7
20260503193729 66 291 0.0 0.0 0.00 0.00 0.00 45 1019.7
20260503193225 65 291 0.0 0.0 0.00 0.00 0.00 47 1020.0
20260503192721 66 291 0.0 0.0 0.00 0.00 0.00 47 1019.8
20260503192216 66 291 0.0 0.0 0.00 0.00 0.00 45 1020.1
20260503191713 65 291 0.0 0.0 0.00 0.00 0.00 45 1020.1
20260503191211 66 291 0.0 0.0 0.00 0.00 0.00 46 1020.2
20260503190707 66 291 0.0 0.0 0.00 0.00 0.00 46 1020.4
20260503190204 65 291 0.0 0.0 0.00 0.00 0.00 49 1020.2
20260503185701 65 291 0.0 0.0 0.00 0.00 0.00 47 1020.2
20260503185156 64 291 0.0 0.0 0.00 0.00 0.00 49 1020.2
20260503184651 64 291 0.0 0.0 0.00 0.00 0.00 48 1020.3
20260503184148 64 291 0.0 0.0 0.00 0.00 0.00 48 1020.7
20260503183644 64 291 0.0 0.0 0.00 0.00 0.00 46 1020.7
20260503183142 65 291 0.0 0.0 0.00 0.00 0.00 49 1020.8
20260503182640 65 291 0.0 0.0 0.00 0.00 0.00 45 1020.8
20260503182139 64 291 0.0 0.0 0.00 0.00 0.00 51 1020.9
20260503181635 63 291 0.0 0.0 0.00 0.00 0.00 48 1020.9
20260503181132 64 291 0.0 0.0 0.00 0.00 0.00 46 1021.1
20260503180628 64 291 0.0 0.0 0.00 0.00 0.00 45 1021.1
20260503180126 63 291 0.0 0.0 0.00 0.00 0.00 47 1021.6
20260503175623 62 291 0.0 0.0 0.00 0.00 0.00 45 1021.2
20260503175120 62 291 0.0 0.0 0.00 0.00 0.00 47 1021.6
20260503174617 62 291 0.0 0.0 0.00 0.00 0.00 44 1021.4
20260503174114 62 291 0.0 0.0 0.00 0.00 0.00 44 1021.7
20260503173609 62 291 0.0 0.0 0.00 0.00 0.00 46 1021.8
20260503173106 62 291 0.0 0.0 0.00 0.00 0.00 43 1022.0
20260503172603 62 291 0.0 1.0 0.00 0.00 0.00 44 1021.9
20260503172100 62 291 0.0 0.0 0.00 0.00 0.00 45 1022.1
20260503171556 63 291 0.0 0.0 0.00 0.00 0.00 45 1021.9
20260503171054 62 291 0.0 0.0 0.00 0.00 0.00 44 1022.1
20260503170550 61 291 0.0 0.0 0.00 0.00 0.00 48 1022.1
20260503150942 60 291 0.0 0.0 0.00 0.00 0.00 51 1022.9
20260503150439 60 291 0.0 0.0 0.00 0.00 0.00 50 1023.0
20260503131332 46 292 0.0 0.0 0.00 0.00 0.00 95 1023.0
20260503130829 46 292 0.0 0.0 0.00 0.00 0.00 96 1023.0
20260503130327 45 292 0.0 0.0 0.00 0.00 0.00 98 1022.9
20260503110720 41 292 0.0 0.0 0.00 0.00 0.00 99 1021.7
20260503110218 41 292 0.0 0.0 0.00 0.00 0.00 99 1021.8
20260503100144 42 292 0.0 0.0 0.00 0.00 0.00 99 1020.6
20260503081538 43 292 0.0 0.0 0.00 0.00 0.00 96 1020.6
20260503081036 43 292 0.0 0.0 0.00 0.00 0.00 96 1020.3
20260503080532 44 292 0.0 0.0 0.00 0.00 0.00 95 1020.2
20260503072506 44 292 0.0 0.0 0.00 0.00 0.00 97 1020.2
20260503072003 44 292 0.0 0.0 0.00 0.00 0.00 97 1020.0
20260503071500 44 292 0.0 0.0 0.00 0.00 0.00 98 1019.9
20260503070955 44 292 0.0 0.0 0.00 0.00 0.00 98 1019.9
20260503070453 44 292 0.0 0.0 0.00 0.00 0.00 98 1020.0
20260503054906 45 292 0.0 0.0 0.00 0.00 0.00 95 1020.0
20260503054402 45 292 0.0 0.0 0.00 0.00 0.00 95 1019.8
20260503053900 45 292 0.0 0.0 0.00 0.00 0.00 95 1019.7
20260503053358 45 292 0.0 0.0 0.00 0.00 0.00 95 1019.7
20260503052854 45 292 0.0 0.0 0.00 0.00 0.00 95 1019.7
20260503052351 45 292 0.0 0.0 0.00 0.00 0.00 95 1019.7
20260503051847 46 292 0.0 0.0 0.00 0.00 0.00 94 1019.5
20260503051344 46 292 0.0 0.0 0.00 0.00 0.00 94 1019.6
20260503050841 46 292 0.0 0.0 0.00 0.00 0.00 94 1019.5
20260503050337 46 292 0.0 0.0 0.00 0.00 0.00 93 1019.5
20260503045835 46 292 0.0 0.0 0.00 0.00 0.00 93 1019.3
20260503045332 46 292 0.0 0.0 0.00 0.00 0.00 93 1019.5
20260503044828 46 292 0.0 0.0 0.00 0.00 0.00 94 1019.4
20260503044325 46 292 0.0 0.0 0.00 0.00 0.00 94 1019.6
20260503043822 46 292 0.0 0.0 0.00 0.00 0.00 95 1019.6
20260503043319 47 292 0.0 0.0 0.00 0.00 0.00 94 1019.5
20260503042815 47 292 0.0 0.0 0.00 0.00 0.00 95 1019.4
20260503042313 47 292 0.0 0.0 0.00 0.00 0.00 95 1019.5
20260503041808 46 292 0.0 0.0 0.00 0.00 0.00 95 1019.3
20260503041306 46 292 0.0 0.0 0.00 0.00 0.00 96 1019.4
20260503040804 46 292 0.0 0.0 0.00 0.00 0.00 96 1019.2
20260503040301 46 292 0.0 0.0 0.00 0.00 0.00 96 1019.5
20260503035757 46 292 0.0 0.0 0.00 0.02 0.02 95 1019.5
20260503035255 46 292 0.0 0.0 0.00 0.02 0.02 95 1019.3
20260503034752 47 292 0.0 0.0 0.00 0.02 0.02 95 1019.4
20260503034249 47 292 0.0 0.0 0.00 0.02 0.02 95 1019.2
20260503033747 47 292 0.0 0.0 0.00 0.02 0.02 95 1019.2
20260503033244 48 292 0.0 0.0 0.00 0.02 0.02 95 1018.9
20260503032742 48 292 0.0 0.0 0.00 0.02 0.02 95 1019.0
20260503032241 48 292 0.0 0.0 0.00 0.02 0.02 95 1019.2
20260503031737 48 292 0.0 1.0 0.00 0.02 0.02 95 1019.2
20260503031235 48 292 0.0 0.0 0.00 0.02 0.02 95 1019.2
20260503030731 48 292 0.0 0.0 0.00 0.02 0.02 94 1019.3
20260503030228 49 292 0.0 0.0 0.00 0.02 0.02 95 1019.0
20260503025725 49 292 0.0 0.0 0.00 0.02 0.02 95 1019.2
20260503025222 49 292 0.0 0.0 0.00 0.02 0.02 95 1019.3
20260503024719 49 292 0.0 0.0 0.00 0.02 0.02 94 1019.1
20260503024216 50 292 0.0 0.0 0.00 0.02 0.02 94 1018.9
20260503023713 50 292 0.0 0.0 0.00 0.02 0.02 94 1019.0
20260503023210 50 292 0.0 0.0 0.00 0.02 0.02 93 1019.3
20260503022706 50 292 0.0 0.0 0.00 0.02 0.02 93 1019.0
20260503022205 50 292 0.0 0.0 0.00 0.02 0.02 92 1019.2
20260503021703 50 292 0.0 0.0 0.05 0.02 0.02 92 1019.3
20260503021159 51 292 0.0 0.0 0.05 0.02 0.02 90 1019.4
20260503020656 51 292 0.0 0.0 0.07 0.01 0.01 89 1019.2
20260503020154 51 292 0.0 0.0 0.07 0.01 0.01 87 1019.4
20260503015650 52 292 0.0 0.0 0.07 0.01 0.01 86 1019.5
20260503015147 54 292 0.0 0.0 0.00 0.00 0.00 81 1019.2
20260503014643 55 294 0.0 0.0 0.00 0.00 0.00 75 1019.3
20260503014141 55 291 0.0 0.0 0.00 0.00 0.00 69 1018.5
20260503013638 55 292 0.0 0.0 0.00 0.00 0.00 65 1018.3
20260503013136 54 292 0.0 0.0 0.00 0.00 0.00 65 1018.1
20260503012633 54 292 0.0 0.0 0.00 0.00 0.00 64 1017.9
20260503012130 54 292 0.0 0.0 0.00 0.00 0.00 62 1017.7
20260503011626 54 292 0.0 0.0 0.00 0.00 0.00 61 1017.4
20260503011124 54 292 0.0 0.0 0.00 0.00 0.00 61 1017.3
20260503010620 54 292 0.0 0.0 0.00 0.00 0.00 60 1017.5
20260503010117 54 292 0.0 0.0 0.00 0.00 0.00 60 1017.2
20260503005614 54 292 0.0 0.0 0.00 0.00 0.00 60 1016.9
20260503005111 55 292 0.0 0.0 0.00 0.00 0.00 60 1016.9
20260503004607 55 292 0.0 0.0 0.00 0.00 0.00 60 1016.9
20260503004106 55 292 0.0 0.0 0.00 0.00 0.00 59 1016.9
20260503003603 55 292 0.0 0.0 0.00 0.00 0.00 59 1016.8
20260503003059 56 292 0.0 0.0 0.00 0.00 0.00 58 1016.7